Hourly Data Report for October 05, 2013

All times are specified in Local Standard Time (LST). Add 1 hour to adjust for Daylight Saving Time where and when it is observed.

MONCTON INTL A
NEW BRUNSWICK

46°06'44.000" N
64°40'43.000" W
70.70 m
8103201
71705
YQM

Download Data

Hourly Data (October 2013)
Hourly Data Report for October 5, 2013
Temp Definition
°C
Dew Point Temp Definition
°C
Rel Hum Definition
%
Wind Dir Definition
10's deg

Wind Spd Definition
km/h
Visibility Definition
km
Stn Press Definition
kPa
Hmdx Definition


Wind Chill Definition


Weather Definition


TIME
00:00 Legend Double Dagger 7.0 2.1 71 32 14 24.1 100.79     LegendNANA
01:00 Legend Double Dagger 6.8 1.5 69 26 11 24.1 100.82     LegendNANA
02:00 Legend Double Dagger 4.5 2.0 84 22 14 24.1 100.85     Clear
03:00 Legend Double Dagger 4.3 2.3 87 22 17 24.1 100.88     LegendNANA
04:00 Legend Double Dagger 3.5 2.2 91 22 17 24.1 100.88     LegendNANA
05:00 Legend Double Dagger 3.0 1.8 92 23 13 24.1 100.91     Clear
06:00 Legend Double Dagger 3.1 1.8 91 21 14 24.1 100.94     LegendNANA
07:00 Legend Double Dagger 3.9 2.3 89 23 15 24.1 100.97     LegendNANA
08:00 Legend Double Dagger 5.3 2.7 83 22 14 24.1 101.03     Mainly Clear
09:00 Legend Double Dagger 8.5 4.0 73 26 12 24.1 101.02     LegendNANA
10:00 Legend Double Dagger 10.4 3.0 60 25 11 24.1 100.97     LegendNANA
11:00 Legend Double Dagger 12.6 3.9 55 25 12 24.1 100.93     Mainly Clear
12:00 Legend Double Dagger 13.8 4.2 52 29 12 24.1 100.90     LegendNANA
13:00 Legend Double Dagger 15.1 4.3 48 28 11 24.1 100.85     LegendNANA
14:00 Legend Double Dagger 14.6 3.8 48 28 15 24.1 100.80     Mostly Cloudy
15:00 Legend Double Dagger 13.9 4.0 51 28 15 24.1 100.77     LegendNANA
16:00 Legend Double Dagger 14.1 5.0 54 25 13 24.1 100.75     LegendNANA
17:00 Legend Double Dagger 13.6 3.7 51 26 14 24.1 100.76     Mostly Cloudy
18:00 Legend Double Dagger 10.9 3.7 61 25 15 24.1 100.80     LegendNANA
19:00 Legend Double Dagger 9.3 4.1 70 25 12 24.1 100.85     LegendNANA
20:00 Legend Double Dagger 8.7 4.7 76 24 15 24.1 100.90     Mainly Clear
21:00 Legend Double Dagger 6.8 4.5 85 23 14 24.1 100.93     LegendNANA
22:00 Legend Double Dagger 6.6 2.9 77 34 18 24.1 101.03     LegendNANA
23:00 Legend Double Dagger 5.6 1.2 73 32 9 24.1 101.06     Clear

Notes on Data Quality.

Legend

  • E = Estimated
  • M = Missing
  • NA = Not Available
  • ‡ = Partner data that is not subject to review by the National Climate Archives
Date modified: